IW4EMA-3 Weather Reports


time (UTC)temp
C
wind
direction
speed
KPH
gust
KPH
rain 1hr
cm
rain 24hr
cm
rain mn
cm
humidity
%
barometer
mb
20260507073522 18 287 1.6 3.2 0.00 0.08 0.00 70 1013.2
20260507072531 17 222 1.6 3.2 0.00 0.08 0.00 72 1012.9
20260507071526 17 196 3.2 4.8 0.00 0.08 0.00 72 1012.9
20260507070610 17 244 1.6 3.2 0.00 0.08 0.00 71 1012.9
20260507065522 17 221 1.6 4.8 0.00 0.10 0.00 71 1012.9
20260507064530 17 269 0.0 1.6 0.00 0.10 0.00 72 1012.6
20260507063522 17 258 1.6 3.2 0.00 0.13 0.00 73 1012.7
20260507062530 16 254 0.0 1.6 0.00 0.15 0.00 79 1012.5
20260507061522 16 206 1.6 1.6 0.00 0.15 0.00 85 1012.5
20260507060530 15 222 1.6 3.2 0.00 0.15 0.00 85 1012.4
20260507055522 15 0.0 0.0 0.00 0.15 0.00 87 1012.4
20260507054531 15 0.0 0.0 0.00 0.15 0.00 88 1012.4
20260507053524 14 0.0 0.0 0.00 0.15 0.00 89 1012.0
20260507050723 11 202 1.6 1.6 0.00 0.28 0.00 94 1011.8
20260507042846 10 0.0 0.0 0.00 0.69 0.00 95 1011.4
20260507041839 10 228 1.6 1.6 0.00 0.71 0.00 95 1011.5
20260507040827 10 0.0 0.0 0.00 0.74 0.00 95 1011.2
20260507035818 10 0.0 0.0 0.00 0.74 0.00 94 1011.3
20260507034826 10 0.0 0.0 0.00 0.74 0.00 94 1011.1
20260507033818 10 0.0 0.0 0.00 0.74 0.00 93 1011.1
20260507032826 10 0.0 0.0 0.00 0.74 0.00 93 1011.1
20260507031838 10 0.0 0.0 0.00 0.76 0.00 93 1011.0
20260507021732 11 0.0 0.0 0.00 0.86 0.00 90 1011.0
20260507020722 12 0.0 0.0 0.00 0.94 0.00 88 1011.2
20260507020258 12 0.0 0.0 0.00 0.99 0.00 88 1011.1
20260507015818 12 0.0 0.0 0.00 1.02 0.00 87 1011.1
20260507015018 12 0.0 0.0 0.00 1.12 0.00 87 1011.0
20260507014638 12 0.0 0.0 0.00 1.17 0.00 87 1010.9
20260507013626 12 193 3.2 3.2 0.00 1.22 0.00 87 1011.0
20260507012618 12 203 1.6 1.6 0.00 1.22 0.00 87 1010.9
20260507011646 12 213 3.2 4.8 0.00 1.24 0.00 86 1010.6
20260507010531 13 235 1.6 1.6 0.00 1.24 0.00 85 1010.6
20260507005439 13 235 0.0 1.6 0.00 1.24 0.00 84 1010.5
20260507004931 13 235 0.0 1.6 0.00 1.24 0.00 84 1010.6
20260507002426 13 235 0.0 1.6 0.00 1.24 0.00 82 1010.7
20260507000427 13 0.0 0.0 0.00 1.24 0.00 79 1010.6
20260506235418 14 221 1.6 1.6 0.00 1.24 0.00 78 1010.8
20260506234427 13 219 3.2 3.2 0.00 1.24 0.00 79 1010.7
20260506233419 13 219 1.6 3.2 0.00 1.24 0.00 79 1010.6
20260506232446 14 238 1.6 1.6 0.00 1.24 0.00 78 1010.7
20260506231419 14 228 0.0 1.6 0.00 1.24 0.00 77 1010.8
20260506230426 14 222 4.8 6.4 0.00 1.24 0.00 77 1010.6
20260506225419 13 219 6.4 9.7 0.00 1.24 0.00 80 1010.6
20260506224426 13 221 4.8 4.8 0.00 1.24 0.00 83 1010.7
20260506223418 13 199 3.2 4.8 0.00 1.24 0.00 83 1010.5
20260506222446 13 200 1.6 3.2 0.00 1.24 0.00 82 1010.6
20260506221419 13 190 1.6 1.6 0.00 1.24 0.00 82 1010.6
20260506220427 14 0.0 0.0 0.00 1.24 0.00 82 1010.8
20260506215439 15 250 1.6 3.2 0.00 1.24 1.24 79 1010.8
20260506214426 15 211 6.4 9.7 0.00 1.24 1.24 80 1010.5
20260506213433 15 219 4.8 4.8 0.00 1.24 1.24 81 1010.6
20260506212427 15 195 6.4 9.7 0.00 1.24 1.24 82 1010.4
20260506211418 15 194 8.0 11.3 0.00 1.24 1.24 83 1010.2
20260506210427 15 196 6.4 9.7 0.00 1.24 1.24 83 1010.2
20260506205419 15 179 6.4 9.7 0.00 1.24 1.24 81 1010.1
20260506204426 15 163 4.8 6.4 0.00 1.24 1.24 81 1010.2
20260506203418 15 160 4.8 6.4 0.00 1.24 1.24 83 1009.9
20260506202426 15 191 4.8 6.4 0.00 1.24 1.24 83 1009.8
20260506201419 16 204 4.8 11.3 0.00 1.24 1.24 84 1009.8
20260506200427 16 175 6.4 9.7 0.00 1.24 1.24 83 1010.0
20260506195419 16 194 6.4 9.7 0.00 1.24 1.24 84 1009.7
20260506194427 16 178 6.4 11.3 0.00 1.24 1.24 85 1009.6
20260506193419 16 184 6.4 9.7 0.00 1.24 1.24 84 1009.2
20260506192428 16 181 6.4 9.7 0.00 1.24 1.24 84 1009.4
20260506191418 17 195 3.2 3.2 0.00 1.24 1.24 85 1009.2
20260506190506 17 181 6.4 9.7 0.00 1.24 1.24 85 1009.0
20260506185418 17 174 8.0 11.3 0.00 1.24 1.24 84 1008.8
20260506184426 17 185 8.0 11.3 0.00 1.24 1.24 84 1008.7
20260506183438 17 199 9.7 16.1 0.00 1.24 1.24 85 1008.8
20260506182426 17 190 9.7 14.5 0.00 1.24 1.24 85 1008.5
20260506181419 17 189 6.4 9.7 0.00 1.24 1.24 85 1008.5
20260506180427 17 189 4.8 6.4 0.00 1.24 1.24 84 1008.4
20260506175418 17 135 3.2 4.8 0.00 1.24 1.24 83 1008.5
20260506174426 17 182 6.4 9.7 0.00 1.24 1.24 83 1008.3
20260506173418 18 206 8.0 11.3 0.00 1.24 1.24 82 1008.1
20260506172427 18 205 6.4 9.7 0.00 1.24 1.24 83 1008.1
20260506171459 18 193 3.2 3.2 0.00 1.24 1.24 83 1008.1
20260506170427 18 155 3.2 6.4 0.00 1.24 1.24 83 1008.0
20260506165419 18 161 4.8 4.8 0.00 1.24 1.24 84 1007.9
20260506164426 18 158 3.2 4.8 0.00 1.24 1.24 83 1008.0
20260506163458 19 162 1.6 6.4 0.00 1.24 1.24 82 1007.9
20260506162446 18 203 3.2 4.8 0.00 1.24 1.24 82 1008.0
20260506161419 19 174 4.8 9.7 0.00 1.24 1.24 82 1008.0
20260506160428 19 167 4.8 6.4 0.00 1.24 1.24 82 1008.1
20260506155419 19 191 8.0 11.3 0.00 1.24 1.24 81 1007.9
20260506154427 19 209 8.0 11.3 0.00 1.24 1.24 80 1008.0
20260506153419 19 183 9.7 14.5 0.00 1.24 1.24 80 1007.9
20260506152427 19 146 12.9 16.1 0.00 1.24 1.24 79 1008.0
20260506151440 19 145 6.4 9.7 0.00 1.24 1.24 80 1008.0
20260506150426 19 207 9.7 12.9 0.00 1.24 1.24 80 1008.0
20260506145419 20 166 4.8 9.7 0.00 1.24 1.24 80 1007.9
20260506144426 20 182 6.4 9.7 0.00 1.24 1.24 82 1008.2
20260506143419 20 195 6.4 12.9 0.00 1.24 1.24 82 1008.2
20260506142427 19 168 6.4 12.9 0.00 1.24 1.24 83 1008.2
20260506141419 19 186 9.7 12.9 0.00 1.24 1.24 84 1008.3
20260506140426 18 190 4.8 11.3 0.00 1.24 1.24 85 1008.3
20260506135420 18 213 8.0 12.9 0.00 1.24 1.24 85 1008.3
20260506134428 18 197 6.4 11.3 0.00 1.24 1.24 86 1008.6
20260506133419 18 149 8.0 12.9 0.00 1.24 1.24 88 1008.6
20260506132507 18 182 4.8 12.9 0.00 1.24 1.24 92 1008.8
20260506131420 18 212 6.4 9.7 0.00 1.24 1.24 93 1009.0
20260506130428 17 192 4.8 6.4 0.00 1.24 1.24 94 1009.0
20260506125420 17 230 1.6 4.8 0.00 1.24 1.24 94 1008.9
20260506124827 17 223 4.8 6.4 0.00 1.24 1.24 94 1008.8
20260506124131 17 0.0 0.0 0.00 1.24 1.24 94 1008.9
20260506115227 20 172 6.4 11.3 0.00 1.24 1.24 81 1008.9
20260506114259 20 172 8.0 12.9 0.00 1.24 1.24 82 1009.1
20260506105316 18 143 14.5 22.5 0.00 1.24 1.24 94 1009.2
20260506104343 18 141 11.3 16.1 0.00 1.24 1.24 96 1009.5
20260506103331 18 102 8.0 11.3 0.00 1.24 1.24 98 1009.7
20260506102324 17 174 14.5 20.9 0.00 1.24 1.24 98 1009.7
20260506101331 16 110 11.3 16.1 0.03 1.24 1.24 99 1009.7
20260506100323 16 134 6.4 9.7 0.03 1.24 1.24 99 1009.7
20260506095331 16 90 4.8 6.4 0.03 1.24 1.24 99 1009.6
20260506094324 16 124 6.4 12.9 0.03 1.24 1.24 99 1009.7
20260506093332 16 118 8.0 14.5 0.03 1.24 1.24 99 1009.7
20260506092324 16 131 9.7 14.5 0.05 1.24 1.24 99 1009.9
20260506091331 16 134 9.7 14.5 0.03 1.22 1.22 99 1010.0
20260506090324 15 89 8.0 12.9 0.05 1.22 1.22 99 1009.8
20260506085331 15 130 9.7 12.9 0.05 1.22 1.22 99 1010.0
20260506084324 15 173 4.8 9.7 0.05 1.22 1.22 99 1010.2
20260506083331 15 127 6.4 12.9 0.05 1.22 1.22 99 1010.1
20260506082324 15 127 1.6 3.2 0.03 1.19 1.19 99 1010.0
20260506081331 15 114 6.4 9.7 0.03 1.19 1.19 99 1009.8
20260506080324 15 114 4.8 6.4 0.00 1.17 1.17 99 1009.7